Location: Asheville, NC
(35.6000°N, 82.5500°W)
Time: 11:48:18
(UTC-04:00)

ZACube-1 - Pass Details

Date: 12 March 2018
Orbit: 584 x 668 km, 97.6° (Epoch: 20 June)

Event Time Altitude Azimuth Distance (km) Brightness Sun altitude
Rises 20:48:43 0° 170° (S) 2,904 ? -15.7°
Reaches altitude 10° 20:50:55 10° 172° (S) 1,987 ? -16.2°
Maximum altitude 20:55:14 77° 258° (WSW) 633 ? -17.0°
Drops below altitude 10° 20:59:29 10° 345° (NNW) 1,951 ? -17.9°
Sets 21:01:38 0° 347° (NNW) 2,847 ? -18.3°
